www.pogodaiklimat.ru

Погода и климат >> Архив погоды >> Россия >> Калмыкия >> Лагань


ПОГОДА в Лагани

  • Прогноз погоды в Лагани
  • Монитор погоды в Лагани

АРХИВ ПОГОДЫ в Лагани

Время (UTC), дата Ветер
(напр.,м/с)
 
Видим.   Явления Облачность Т
(С)
Тd
(С)
f
(%)
Тe
(С)
Тes
(С)
Комфортность P
(гПа)
Po
(гПа)
Тmin
(С)
Tmax
(С)
R
(мм)
R24
(мм)
S
(см)
03 15.08 С 1 4000 м дым ясно +16.9 +11.3 70 +18 +19 1015.5 1018.1 +13.4
06 15.08 В 3 4000 м дым ясно +26.4 +7.7 31 +26 +35 жарко 1015.8 1018.3
09 15.08 В 6 20 км ясно +28.1 +7.1 27 +27 +34 жарко 1015.6 1018.1
12 15.08 В 6 20 км ясно +27.4 +11.5 37 +28 +32 жарко 1014.5 1017.0
15 15.08 В 4 20 км ясно +24.9 +15.5 56 +28 +28 жарко 1014.4 1017.0 +28.5
18 15.08 В 2 20 км ясно +20.0 +14.6 71 +23 +23 комфорт 1014.5 1017.1
21 15.08 В 3 20 км ясно +20.7 +16.5 77 +24 +24 комфорт 1013.7 1016.3
00 16.08 В 4 10 км ясно +21.4 +18.1 81 +26 +26 душно 1012.7 1015.3
03 16.08 В 3 10 км ясно +22.1 +19.6 86 +28 +28 душно 1012.5 1015.1 +19.6
06 16.08 В 8-11
{11}
20 км ясно +26.9 +15.9 51 +30 +32 душно 1012.8 1015.3
09 16.08 В 8-12
{13}
20 км ясно +29.3 +12.8 36 +30 +33 жарко 1012.5 1015.0
12 16.08 В 7-11
{13}
20 км ясно +28.7 +15.0 43 +31 +34 жарко 1011.2 1013.7
15 16.08 В 6-10
{12}
20 км ясно +25.9 +17.5 60 +30 +30 душно 1010.1 1012.6 +29.5
18 16.08 В 5
{10}
20 км ясно +23.6 +17.7 70 +28 +28 душно 1010.3 1012.8
21 16.08 СВ 3 20 км 3/0
[Ac trans]
+21.4 +17.5 78 +25 +25 комфорт 1010.0 1012.6
00 17.08 В 4 20 км 4/0
[Ci sp]
+22.0 +17.2 74 +26 +26 душно 1009.6 1012.2
03 17.08 В 4 20 км 5/0
[Ac trans Ci sp]
+23.9 +18.0 70 +28 +29 душно 1010.0 1012.5 +20.1
06 17.08 В 9-13
{13}
10 км пыльный позёмок 8/0
[Ci sp]
+26.9 +17.2 55 +31 +32 душно 1010.0 1012.5
09 17.08 ЮВ 7
{14}
20 км {ливн. осадки} 8/3 1000 м
[Cb cap Ac cuf Ci sp]
+27.1 +17.9 57 +32 +34 очень
душно
1011.3 1013.9
12 17.08 В 6-11
{12}
20 км {ливн. осадки} 8/0
[Ac cuf Ci sp]
+27.3 +18.2 58 +32 +34 очень
душно
1011.1 1013.6
15 17.08 В 5
{11}
20 км 4/0
[Ac cuf Ci fib]
+26.0 +17.5 59 +30 +30 душно 1011.4 1014.0 +29.1 0.0
18 17.08 СВ 2 10 км 3/0
[Ci fib]
+21.4 +18.8 85 +26 +26 душно 1012.4 1015.0
21 17.08 СВ 3 10 км 8/0
[Ac trans]
+20.8 +18.9 89 +25 +25 комфорт 1012.0 1014.6
00 18.08 В 3 20 км 8/3 600 м
[Cb cap Ac cuf]
+22.7 +17.2 71 +28 +28 душно 1011.0 1013.5
03 18.08 ЮВ 4 20 км 9/4
[Cb cap Ac cuf Ci ing]
+24.7 +17.8 65 +29 +29 душно 1010.6 1013.1 +20.5
06 18.08 В 8-11
{12}
20 км 9/3 600 м
[Cb cap Ac cuf Ci fib]
+27.1 +16.1 51 +30 +31 душно 1010.9 1013.4
09 18.08 В 9-13
{15}
10 км пыльный позёмок 9/0
[Ac cuf Ci fib]
+29.9 +16.2 44 +33 +34 душно 1011.6 1014.1
12 18.08 В 9-13
{15}
10 км пыльный позёмок 6/0
[Ac cuf Ci fib]
+29.4 +15.6 43 +32 +33 душно 1011.4 1013.9
15 18.08 В 5
{14}
20 км 9/4 600 м
[Sc Ac cuf Ci fib]
+27.3 +16.4 51 +31 +31 душно 1011.7 1014.2 +30.2
18 18.08 В 4
{10}
20 км 8/3 600 м
[Sc Ac trans Ci fib]
+24.9 +17.2 62 +29 +29 душно 1012.6 1015.2
21 18.08 В 4 20 км 9/0
[Ac trans Ci fib]
+23.2 +17.7 71 +29 +29 душно 1012.7 1015.2
00 19.08 В 1 20 км 9/0
[Ac trans Ci fib]
+21.5 +18.0 80 +26 +26 душно 1013.2 1015.8
03 19.08 В 4 20 км 6/0
[Ac trans Ci fib]
+24.5 +18.5 69 +29 +29 душно 1013.5 1016.0 +20.6
06 19.08 ЮВ 9-12
{14}
10 км пыльный позёмок 4/0
[Ac trans Ci fib]
+28.8 +17.8 51 +33 +34 очень
душно
1014.9 1017.4
09 19.08 В 8-10
{13}
10 км пыльный позёмок 3/0
[Ci sp]
+29.9 +18.6 51 +35 +38 очень
душно
1015.5 1018.0
12 19.08 ЮВ 7
{11}
20 км 4/0
[Ac cast Ci fib]
+29.1 +19.3 56 +35 +37 очень
душно
1016.0 1018.5
15 19.08 В 5
{11}
20 км 5/0
[Ac trans Ci fib]
+26.8 +19.1 63 +32 +32 очень
душно
1016.7 1019.2 +30.3
18 19.08 В 3 20 км ясно +22.7 +19.1 80 +29 +29 очень
душно
1017.6 1020.2
21 19.08 СВ 3 10 км ясно +21.9 +19.1 84 +27 +27 душно 1017.5 1020.1
00 20.08 В 2 10 км ясно +19.7 +17.7 88 +23 +23 комфорт 1016.9 1019.5
03 20.08 В 3 10 км ясно +22.5 +20.8 90 +29 +30 очень
душно
1017.6 1020.2 +18.0
06 20.08 ЮВ 7 20 км ясно +31.8 +14.0 34 +33 +36 жарко 1018.3 1020.8
09 20.08 ЮВ 8
{11}
20 км ясно +32.8 +13.0 30 +33 +36 жарко 1018.4 1020.9
12 20.08 В 8-11
{11}
20 км 3/0
[Ci sp]
+32.3 +13.1 31 +33 +35 жарко 1017.7 1020.1
15 20.08 В 4
{11}
20 км 1/0
[Ci sp]
+28.6 +16.3 47 +32 +32 душно 1017.6 1020.1 +33.3
18 20.08 СВ 2 20 км ясно +23.4 +18.8 75 +30 +30 очень
душно
1018.4 1021.0
21 20.08 СВ 3 20 км ясно +22.8 +19.0 79 +29 +29 очень
душно
1016.9 1019.5
00 21.08 В 2 10 км ясно +20.5 +17.1 81 +24 +24 комфорт 1015.9 1018.5
03 21.08 СЗ 1 10 км 4/0
[Ci fib]
+18.5 +16.0 85 +20 +21 1016.4 1019.0 +17.3
06 21.08 ЮВ 3 20 км ясно +30.4 +19.4 52 +36 +44 очень
душно
1016.5 1019.0
09 21.08 В 3 20 км 1/0
[Ci fib]
+34.8 +10.6 23 +34 +46 очень
жарко
1015.6 1018.0
12 21.08 В 5 20 км ясно +34.1 +11.0 25 +34 +38 очень
жарко
1014.7 1017.1
15 21.08 В 3 20 км ясно +30.5 +14.2 37 +32 +32 жарко 1014.2 1016.7 +35.7
18 21.08 В 3 10 км ясно +24.5 +21.2 82 +31 +31 очень
душно
1014.3 1016.8
21 21.08 В 3 10 км ясно +23.0 +19.8 82 +30 +30 очень
душно
1013.7 1016.2
00 22.08 СВ 2 10 км ясно +20.5 +19.0 91 +25 +25 комфорт 1013.3 1015.9

 

Местоположение метеостанции Лагань (Калмыкия, Россия): широта 45.40 долгота 47.35 высота над уровнем моря -25 м.

В архиве по умолчанию представлена погода в Лагани за последнюю неделю. Архивные данные за месяц целиком и за предыдущие месяцы, начиная с января 2011 года, Вы можете получить, выбрав интересующий диапазон дат из раскрывающегося списка и нажав кнопку "Ввод!".


*Определитесь, кто Вы:
робот инопланетянин человек

Внимание! Время в таблицах - всемирное. Для получения местного времени необходимо прибавить поправку, которая равна 3 ч.

Смотрите также архив погоды в соседних городах и на ближайших метеорологических станциях:

Погода в Лимане (Астраханская область, Россия) (46 км)
Погода в Артезиане (Калмыкия, Россия) (70 км)
Погода в Комсомольском (Калмыкия, Россия) (103 км)
Погода на Острове Тюлений (Дагестан, Россия) (104 км)
Погода в Астрахани (Астраханская область, Россия) (109 км)
Погода в Кочубее (Дагестан, Россия) (128 км)
Погода в Зеленге (Астраханская область, Россия) (131 км)
Погода в Утте (Калмыкия, Россия) (149 км)
Погода в Южно-Сухокумске (Дагестан, Россия) (158 км)
Погода в Досанге (Астраханская область, Россия) (175 км)

Пояснения к столбцам:

Ветер - указаны скорость ветра в м/с - средняя за 10 мин, порывы в срок и между сроками (в фигурных скобках) и направление, откуда дует ветер: С - северный, СВ - северо-восточный, В - восточный, ЮВ - юго-восточный, Ю - южный, ЮЗ - юго-западный, З - западный, СЗ - северо-западный.
Видимость - горизонтальная дальность видимости в метрах или километрах. При видимости от 1 до 10 км при отсутствии осадков обычно наблюдается дымка, при ухудшении видимости до 1 км и менее - туман. В сухую погоду видимость может ухудшаться дымом, пылью или мглою.
Явления - указаны атмосферные явления, наблюдавшиеся в срок или в последний час перед сроком; фигурными скобками обозначены явления, наблюдавшиеся между сроками (за 1-3 часа до срока); квадратными скобками обозначены град или гололедные отложения с указанием их диаметра в мм.
Облачность - указаны через наклонную черту общая и нижняя облачность в баллах и высота нижней границы облаков в метрах; квадратными скобками обозначены формы облаков: Ci - перистые, Cs - перисто-слоистые, Cc - перисто-кучевые, Ac - высококучевые, As - высокослоистые, Sc - слоисто-кучевые, Ns - слоисто-дождевые, Cu - кучевые, Cb - кучево-дождевые. Подробнее классификацию облаков см. в Атласе облаков (PDF).
T - Температура воздуха - температура, измеренная на высоте 2 м над землей.
Td - Температура точки росы - температура, при понижении до которой содержащийся в воздухе водяной пар достигнет насыщения.
f - Относительная влажность воздуха - влажноcть воздуха, измеренная на высоте 2 м над землей.
Te - Эффективная температура - температура, которую ощущает одетый по сезону человек в тени. Характеристика душности погоды. При расчете учитывается влияние влажности воздуха и скорости ветра на теплоощущения человека.
Tes - Эффективная температура на солнце - температура, которую ощущает человек, с поправкой на солнечный нагрев. Характеристика знойности погоды. Зависит от высоты солнца над горизонтом, облачности и скорости ветра. Ночью, в пасмурную погоду, а также при ветре 12 м/с и более поправка равна нулю.
P - Атмосферное давление - приведенное к уровню моря атмосферное давление.
Po - Атмосферное давление - измеренное на уровне метеостанции атмосферное давление.
Tmin - Минимальная температура - минимум температуры воздуха на высоте 2 м над землей.
Tmax - Максимальная температура - максимум температуры воздуха на высоте 2 м над землей.
R - Количество осадков - Количество выпавших осадков за период времени, мм. При наведении курсора мыши на число - период времени, за который выпало указанное количество осадков.
R24 - Количество осадков - Количество выпавших осадков за 24 часа, мм.
S - Снежный покров - Высота снежного покрова, см. При наведении курсора мыши на число - состояние снежного покрова и степень покрытия местности в баллах.